| time (UTC) | temp F | wind direction | speed MPH | gust MPH | rain 1hr in | rain 24hr in | rain mn in | humidity % | barometer mb |
| 20260506203143 | 58 | 345 | 7.0 | 18.0 | 0.00 | 0.01 | 0.01 | 30 | 1019.0 |
| 20260506202122 | 58 | 326 | 6.0 | 15.0 | 0.00 | 0.01 | 0.01 | 33 | 1019.0 |
| 20260506201123 | 59 | 300 | 3.0 | 9.0 | 0.00 | 0.01 | 0.01 | 31 | 1019.1 |
| 20260506200122 | 58 | 313 | 5.0 | 20.0 | 0.00 | 0.01 | 0.01 | 30 | 1019.2 |
| 20260506195122 | 58 | 343 | 6.0 | 16.0 | 0.00 | 0.10 | 0.01 | 32 | 1019.2 |
| 20260506194122 | 58 | 305 | 2.0 | 10.0 | 0.00 | 0.10 | 0.01 | 38 | 1019.2 |
| 20260506193122 | 57 | 319 | 4.0 | 14.0 | 0.00 | 0.10 | 0.01 | 32 | 1019.2 |
| 20260506192122 | 57 | 338 | 4.0 | 13.0 | 0.00 | 0.10 | 0.01 | 35 | 1019.2 |
| 20260506191122 | 57 | 89 | 2.0 | 6.0 | 0.00 | 0.10 | 0.01 | 35 | 1019.3 |
| 20260506190122 | 57 | 187 | 2.0 | 5.0 | 0.00 | 0.10 | 0.01 | 43 | 1019.4 |
| 20260506185122 | 56 | 187 | 2.0 | 5.0 | 0.00 | 0.12 | 0.01 | 41 | 1019.4 |
| 20260506184122 | 54 | 132 | 3.0 | 7.0 | 0.00 | 0.12 | 0.01 | 44 | 1019.6 |
| 20260506183122 | 54 | 119 | 3.0 | 9.0 | 0.00 | 0.12 | 0.01 | 44 | 1019.6 |
| 20260506182122 | 53 | 118 | 3.0 | 8.0 | 0.00 | 0.12 | 0.01 | 43 | 1019.6 |
| 20260506181122 | 53 | 120 | 3.0 | 7.0 | 0.00 | 0.12 | 0.01 | 43 | 1019.6 |
| 20260506180122 | 53 | 140 | 2.0 | 6.0 | 0.00 | 0.12 | 0.01 | 47 | 1019.7 |
| 20260506175122 | 52 | 140 | 3.0 | 10.0 | 0.00 | 0.15 | 0.01 | 44 | 1019.7 |
| 20260506174122 | 52 | 166 | 3.0 | 7.0 | 0.00 | 0.15 | 0.01 | 49 | 1019.5 |
| 20260506173122 | 51 | 171 | 4.0 | 7.0 | 0.00 | 0.15 | 0.01 | 54 | 1019.6 |
| 20260506172123 | 50 | 101 | 4.0 | 8.0 | 0.00 | 0.15 | 0.01 | 49 | 1019.6 |
| 20260506171143 | 50 | 121 | 3.0 | 8.0 | 0.00 | 0.15 | 0.01 | 52 | 1019.5 |
| 20260506170123 | 50 | 91 | 3.0 | 7.0 | 0.00 | 0.15 | 0.01 | 52 | 1019.5 |
| 20260506165143 | 49 | 99 | 1.0 | 5.0 | 0.00 | 0.17 | 0.01 | 54 | 1019.4 |
| 20260506164122 | 48 | 90 | 2.0 | 7.0 | 0.00 | 0.17 | 0.01 | 49 | 1019.4 |
| 20260506163122 | 48 | 101 | 3.0 | 9.0 | 0.00 | 0.17 | 0.01 | 52 | 1019.3 |
| 20260506162122 | 48 | 127 | 2.0 | 7.0 | 0.00 | 0.17 | 0.01 | 55 | 1019.3 |
| 20260506161143 | 47 | 146 | 2.0 | 7.0 | 0.00 | 0.17 | 0.01 | 54 | 1019.1 |
| 20260506160143 | 47 | 109 | 3.0 | 8.0 | 0.00 | 0.17 | 0.01 | 54 | 1019.1 |
| 20260506155122 | 46 | 106 | 2.0 | 8.0 | 0.00 | 0.18 | 0.01 | 57 | 1019.0 |
| 20260506154122 | 45 | 129 | 2.0 | 4.0 | 0.00 | 0.18 | 0.01 | 60 | 1019.0 |
| 20260506153122 | 44 | 127 | 1.0 | 4.0 | 0.00 | 0.18 | 0.01 | 63 | 1018.9 |
| 20260506152122 | 42 | 123 | 2.0 | 4.0 | 0.00 | 0.18 | 0.01 | 69 | 1018.9 |
| 20260506151143 | 40 | 124 | 2.0 | 6.0 | 0.00 | 0.18 | 0.01 | 77 | 1018.9 |
| 20260506150143 | 39 | 113 | 1.0 | 3.0 | 0.00 | 0.18 | 0.01 | 77 | 1018.8 |
| 20260506145122 | 38 | 144 | 1.0 | 5.0 | 0.00 | 0.18 | 0.01 | 79 | 1018.7 |
| 20260506144122 | 38 | 124 | 0.0 | 3.0 | 0.00 | 0.18 | 0.01 | 81 | 1018.7 |
| 20260506143122 | 38 | 113 | 1.0 | 3.0 | 0.00 | 0.18 | 0.01 | 81 | 1018.7 |
| 20260506142122 | 37 | 95 | 0.0 | 3.0 | 0.00 | 0.18 | 0.01 | 82 | 1018.6 |
| 20260506141122 | 36 | 81 | 0.0 | 3.0 | 0.00 | 0.18 | 0.01 | 82 | 1018.4 |
| 20260506140122 | 36 | 0 | 0.0 | 0.0 | 0.00 | 0.18 | 0.01 | 82 | 1018.3 |
| 20260506135122 | 35 | 0 | 0.0 | 0.0 | 0.00 | 0.18 | 0.01 | 82 | 1018.2 |
| 20260506134122 | 35 | 0 | 0.0 | 0.0 | 0.00 | 0.18 | 0.01 | 82 | 1018.2 |
| 20260506133122 | 35 | 0 | 0.0 | 0.0 | 0.00 | 0.18 | 0.01 | 82 | 1018.0 |
| 20260506132122 | 34 | 0 | 0.0 | 0.0 | 0.00 | 0.18 | 0.01 | 81 | 1017.8 |
| 20260506131122 | 34 | 0 | 0.0 | 0.0 | 0.00 | 0.18 | 0.01 | 81 | 1017.7 |
| 20260506125122 | 34 | 0 | 0.0 | 0.0 | 0.00 | 0.18 | 0.01 | 80 | 1017.3 |
| 20260506124143 | 35 | 0 | 0.0 | 0.0 | 0.00 | 0.18 | 0.01 | 80 | 1017.0 |
| 20260506123122 | 35 | 0 | 0.0 | 0.0 | 0.00 | 0.18 | 0.01 | 80 | 1017.0 |
| 20260506122143 | 35 | 0 | 0.0 | 0.0 | 0.00 | 0.18 | 0.01 | 79 | 1016.8 |
| 20260506121123 | 35 | 0 | 0.0 | 0.0 | 0.00 | 0.18 | 0.01 | 79 | 1016.8 |
| 20260506120143 | 35 | 0 | 0.0 | 0.0 | 0.00 | 0.18 | 0.01 | 79 | 1016.7 |
| 20260506115122 | 36 | 0 | 0.0 | 0.0 | 0.00 | 0.18 | 0.01 | 79 | 1016.4 |
| 20260506114143 | 36 | 0 | 0.0 | 0.0 | 0.00 | 0.18 | 0.01 | 79 | 1016.6 |
| 20260506113122 | 36 | 0 | 0.0 | 0.0 | 0.00 | 0.18 | 0.01 | 79 | 1016.4 |
| 20260506112122 | 36 | 91 | 0.0 | 1.0 | 0.00 | 0.18 | 0.01 | 79 | 1016.4 |
| 20260506111122 | 36 | 91 | 0.0 | 1.0 | 0.00 | 0.18 | 0.01 | 79 | 1016.7 |
| 20260506110122 | 36 | 69 | 1.0 | 3.0 | 0.00 | 0.18 | 0.01 | 79 | 1016.5 |
| 20260506105143 | 36 | 51 | 1.0 | 2.0 | 0.00 | 0.18 | 0.01 | 79 | 1016.6 |
| 20260506104122 | 37 | 58 | 1.0 | 3.0 | 0.00 | 0.18 | 0.01 | 79 | 1016.5 |
| 20260506103122 | 37 | 59 | 1.0 | 3.0 | 0.00 | 0.18 | 0.01 | 79 | 1016.4 |
| 20260506102122 | 37 | 78 | 1.0 | 2.0 | 0.00 | 0.18 | 0.01 | 78 | 1016.4 |
| 20260506101122 | 37 | 81 | 1.0 | 4.0 | 0.00 | 0.18 | 0.01 | 77 | 1016.4 |
| 20260506100122 | 38 | 101 | 1.0 | 4.0 | 0.00 | 0.18 | 0.01 | 76 | 1016.4 |
| 20260506095122 | 38 | 117 | 3.0 | 9.0 | 0.01 | 0.18 | 0.01 | 75 | 1016.4 |
| 20260506094122 | 38 | 123 | 4.0 | 12.0 | 0.01 | 0.18 | 0.01 | 74 | 1016.3 |
| 20260506093143 | 39 | 153 | 4.0 | 10.0 | 0.01 | 0.18 | 0.01 | 73 | 1016.4 |
| 20260506092122 | 40 | 128 | 4.0 | 12.0 | 0.01 | 0.18 | 0.01 | 73 | 1016.4 |
| 20260506091122 | 42 | 74 | 2.0 | 8.0 | 0.00 | 0.18 | 0.00 | 72 | 1016.4 |
| 20260506090143 | 42 | 42 | 1.0 | 3.0 | 0.00 | 0.18 | 0.00 | 70 | 1015.8 |
| 20260506085122 | 42 | 164 | 2.0 | 10.0 | 0.00 | 0.17 | 0.00 | 66 | 1015.5 |
| 20260506084122 | 42 | 157 | 3.0 | 8.0 | 0.00 | 0.17 | 0.00 | 63 | 1015.3 |
| 20260506083122 | 43 | 166 | 2.0 | 7.0 | 0.00 | 0.17 | 0.00 | 63 | 1014.9 |
| 20260506082122 | 43 | 172 | 5.0 | 12.0 | 0.00 | 0.17 | 0.00 | 62 | 1014.8 |
| 20260506081122 | 44 | 59 | 3.0 | 7.0 | 0.00 | 0.17 | 0.00 | 62 | 1014.4 |
| 20260506080122 | 45 | 74 | 3.0 | 8.0 | 0.00 | 0.17 | 0.00 | 62 | 1014.1 |
| 20260506073122 | 47 | 8 | 4.0 | 12.0 | 0.00 | 0.17 | 0.00 | 69 | 1013.1 |
| 20260506072122 | 48 | 208 | 2.0 | 6.0 | 0.00 | 0.17 | 0.00 | 74 | 1012.6 |
| 20260506071122 | 48 | 197 | 1.0 | 5.0 | 0.00 | 0.17 | 0.00 | 77 | 1012.1 |
| 20260506070122 | 48 | 0 | 0.0 | 0.0 | 0.00 | 0.17 | 0.00 | 77 | 1011.7 |
| 20260506062122 | 49 | 221 | 0.0 | 1.0 | 0.00 | 0.17 | 0.00 | 76 | 1010.9 |
| 20260506061122 | 49 | 166 | 0.0 | 2.0 | 0.00 | 0.17 | 0.00 | 75 | 1010.6 |
| 20260506060122 | 50 | 119 | 0.0 | 2.0 | 0.00 | 0.17 | 0.00 | 74 | 1010.5 |
| 20260506051122 | 50 | 94 | 1.0 | 3.0 | 0.00 | 0.17 | 0.17 | 72 | 1010.1 |
| 20260506050122 | 50 | 341 | 0.0 | 1.0 | 0.00 | 0.17 | 0.17 | 70 | 1009.9 |
| 20260506045122 | 50 | 314 | 0.0 | 1.0 | 0.00 | 0.17 | 0.17 | 69 | 1009.7 |
| 20260506044122 | 50 | 0 | 0.0 | 0.0 | 0.00 | 0.17 | 0.17 | 68 | 1009.9 |
| 20260506043122 | 51 | 315 | 0.0 | 1.0 | 0.00 | 0.17 | 0.17 | 68 | 1009.9 |
| 20260506042122 | 51 | 0 | 0.0 | 3.0 | 0.00 | 0.17 | 0.17 | 67 | 1009.8 |
| 20260506041123 | 51 | 34 | 0.0 | 4.0 | 0.00 | 0.17 | 0.17 | 69 | 1009.7 |
| 20260506040122 | 50 | 18 | 3.0 | 5.0 | 0.00 | 0.17 | 0.17 | 73 | 1009.7 |
| 20260506035122 | 49 | 338 | 3.0 | 8.0 | 0.00 | 0.17 | 0.17 | 72 | 1009.7 |
| 20260506034122 | 50 | 302 | 1.0 | 3.0 | 0.00 | 0.17 | 0.17 | 71 | 1009.6 |
| 20260506033143 | 50 | 278 | 0.0 | 4.0 | 0.00 | 0.17 | 0.17 | 70 | 1009.2 |
| 20260506032122 | 51 | 0 | 0.0 | 0.0 | 0.00 | 0.17 | 0.17 | 69 | 1009.1 |
| 20260506031122 | 51 | 277 | 0.0 | 2.0 | 0.00 | 0.17 | 0.17 | 68 | 1009.1 |
| 20260506030122 | 51 | 352 | 1.0 | 5.0 | 0.00 | 0.17 | 0.17 | 69 | 1008.9 |
| 20260506025143 | 51 | 338 | 1.0 | 5.0 | 0.00 | 0.17 | 0.17 | 70 | 1008.8 |
| 20260506024122 | 52 | 339 | 3.0 | 8.0 | 0.00 | 0.17 | 0.17 | 71 | 1008.9 |
| 20260506023122 | 52 | 282 | 0.0 | 3.0 | 0.00 | 0.17 | 0.17 | 70 | 1008.7 |
| 20260506022122 | 53 | 0 | 0.0 | 2.0 | 0.00 | 0.17 | 0.17 | 70 | 1008.5 |
| 20260506021122 | 53 | 0 | 0.0 | 0.0 | 0.00 | 0.17 | 0.17 | 69 | 1008.3 |
| 20260506020122 | 54 | 0 | 0.0 | 0.0 | 0.00 | 0.17 | 0.17 | 68 | 1008.3 |
| 20260506015123 | 54 | 0 | 0.0 | 0.0 | 0.00 | 0.17 | 0.17 | 68 | 1008.2 |
| 20260506014122 | 55 | 273 | 0.0 | 1.0 | 0.00 | 0.17 | 0.17 | 68 | 1008.3 |
| 20260506013122 | 56 | 269 | 0.0 | 2.0 | 0.00 | 0.17 | 0.17 | 66 | 1008.2 |
| 20260506012122 | 57 | 257 | 1.0 | 4.0 | 0.00 | 0.17 | 0.17 | 65 | 1008.1 |
| 20260506011143 | 56 | 119 | 0.0 | 1.0 | 0.00 | 0.17 | 0.17 | 62 | 1008.0 |
| 20260506010122 | 56 | 119 | 0.0 | 3.0 | 0.00 | 0.17 | 0.17 | 62 | 1008.1 |
| 20260506005122 | 56 | 121 | 0.0 | 1.0 | 0.00 | 0.17 | 0.17 | 62 | 1008.2 |
| 20260506004122 | 56 | 121 | 1.0 | 4.0 | 0.00 | 0.17 | 0.17 | 61 | 1008.0 |
| 20260506003123 | 56 | 81 | 0.0 | 3.0 | 0.00 | 0.17 | 0.17 | 61 | 1008.0 |
| 20260506002122 | 56 | 147 | 0.0 | 2.0 | 0.00 | 0.17 | 0.17 | 60 | 1008.2 |
| 20260506001122 | 56 | 118 | 1.0 | 5.0 | 0.00 | 0.17 | 0.17 | 60 | 1008.1 |
| 20260506000122 | 56 | 106 | 2.0 | 7.0 | 0.00 | 0.17 | 0.17 | 61 | 1008.2 |
| 20260505235122 | 56 | 147 | 2.0 | 6.0 | 0.00 | 0.17 | 0.17 | 62 | 1008.2 |
| 20260505234143 | 56 | 181 | 0.0 | 3.0 | 0.00 | 0.17 | 0.17 | 61 | 1008.3 |
| 20260505233122 | 56 | 163 | 1.0 | 5.0 | 0.00 | 0.17 | 0.17 | 61 | 1008.4 |
| 20260505232122 | 56 | 183 | 0.0 | 5.0 | 0.00 | 0.17 | 0.17 | 62 | 1008.5 |
| 20260505231122 | 56 | 155 | 2.0 | 6.0 | 0.00 | 0.17 | 0.17 | 62 | 1008.6 |
| 20260505230122 | 56 | 159 | 2.0 | 6.0 | 0.00 | 0.17 | 0.17 | 61 | 1008.7 |
| 20260505225122 | 56 | 178 | 2.0 | 6.0 | 0.00 | 0.17 | 0.17 | 62 | 1008.8 |
| 20260505224123 | 56 | 77 | 1.0 | 4.0 | 0.00 | 0.17 | 0.17 | 60 | 1008.9 |
| 20260505223122 | 57 | 117 | 1.0 | 6.0 | 0.00 | 0.17 | 0.17 | 59 | 1009.0 |
| 20260505222143 | 57 | 188 | 2.0 | 7.0 | 0.00 | 0.17 | 0.17 | 62 | 1009.1 |
| 20260505221123 | 56 | 149 | 2.0 | 6.0 | 0.00 | 0.17 | 0.17 | 63 | 1009.3 |
| 20260505220143 | 56 | 157 | 3.0 | 7.0 | 0.00 | 0.17 | 0.17 | 63 | 1009.5 |
| 20260505215122 | 56 | 184 | 1.0 | 3.0 | 0.00 | 0.17 | 0.17 | 65 | 1009.7 |
| 20260505214143 | 55 | 184 | 3.0 | 8.0 | 0.00 | 0.17 | 0.17 | 67 | 1009.9 |
| 20260505213122 | 54 | 169 | 2.0 | 8.0 | 0.00 | 0.17 | 0.17 | 70 | 1010.0 |
| 20260505212122 | 53 | 165 | 2.0 | 7.0 | 0.00 | 0.17 | 0.17 | 72 | 1010.2 |
| 20260505211122 | 52 | 138 | 1.0 | 4.0 | 0.00 | 0.17 | 0.17 | 76 | 1010.2 |
| 20260505210123 | 51 | 103 | 2.0 | 6.0 | 0.00 | 0.17 | 0.17 | 77 | 1010.4 |
| 20260505205122 | 51 | 123 | 2.0 | 8.0 | 0.00 | 0.17 | 0.17 | 80 | 1010.4 |
| 20260505204122 | 51 | 116 | 2.0 | 8.0 | 0.01 | 0.17 | 0.17 | 81 | 1010.4 |